Weather History for LICZ - June, 2013

Change the Weather History Date:

Monday, June 24, 2013

  Actual Average Record
Temperature  
Mean Temperature 76 °F -  
Max Temperature 88 °F 91 °F 107 °F (2007)
Min Temperature 64 °F 65 °F 59 °F (1999)
Cooling Degree Days 11    
Growing Degree Days 26 (Base 50)    
Moisture  
Dew Point 64 °F    
Average Humidity 68    
Maximum Humidity 100    
Minimum Humidity 26    
Precipitation  
Precipitation 0.00 in 0.00 in - ()
Sea Level Pressure  
Sea Level Pressure 29.95 in    
Wind  
Wind Speed 5 mph ()    
Max Wind Speed 20 mph    
Max Gust Speed -    
Visibility 6.6 miles    
Events      
Averages and records for this station are not official NWS values.
T = Trace of Precipitation, MM = Missing Value Source: Averaged Metar Reports

Daily Weather History Graph

Daily Weather History Graph

Search for Another Location

Airport or City:

Trip Planner

Search our weather history database for the weather conditions in past years. The results will help you decide how hot, cold, wet, or windy it might be!

Date:

Astronomy

Jun. 24, 2013 Rise Set
Actual Time 5:40 AM CEST 8:24 PM CEST
Civil Twilight 5:09 AM CEST 8:56 PM CEST
Nautical Twilight 4:30 AM CEST 9:34 PM CEST
Astronomical Twilight 3:46 AM CEST 10:18 PM CEST
Moon 9:16 PM CEST (6/24) 6:45 AM CEST (6/24)
Length of Visible Light 15h 46m
Length of Day
14h 44m
Full, 99% of the Moon is Illuminated
Jun 24
Full
Jun 30
Last Quarter
Jul 8
New
Jul 16
First Quarter
Jul 22
Full

Hourly Weather History & Observations

Time (CEST) Temp. Heat Index Dew Point Humidity Pressure Visibility Wind Dir Wind Speed Gust Speed Precip Events Conditions
12:55 AM 69.8 °F - 69.8 °F 100% 29.95 in - WSW 1.2 mph - N/A   Clear
1:55 AM 69.8 °F - 69.8 °F 100% 29.95 in - West 2.3 mph - N/A   Clear
2:00 AM 70 °F - 70 °F 100% 29.95 in 9 mi West 2.3 mph - -  
2:55 AM 68.0 °F - 68.0 °F 100% 29.92 in - WNW 2.3 mph - N/A   Clear
3:55 AM 68.0 °F - 68.0 °F 100% 29.92 in - NNE 1.2 mph - N/A   Clear
4:55 AM 64.4 °F - 64.4 °F 100% 29.92 in - NNE 1.2 mph - N/A   Clear
5:00 AM 65 °F - 65 °F 99% 29.94 in 8 mi NNE 1.2 mph - -  
5:55 AM 64.4 °F - 64.4 °F 100% 29.92 in - West 2.3 mph - N/A   Clear
6:55 AM 66.2 °F - 64.4 °F 94% 29.92 in - NNW 2.3 mph - N/A   Clear
7:55 AM 71.6 °F - 69.8 °F 94% 29.95 in - NNW 1.2 mph - N/A   Clear
8:00 AM 72 °F - 69 °F 88% 29.95 in 7 mi NNW 1.2 mph - -  
8:55 AM 78.8 °F - 64.4 °F 61% 29.95 in - NNE 2.3 mph - N/A   Clear
9:55 AM 80.6 °F 81.1 °F 59.0 °F 48% 29.95 in - WNW 3.5 mph - N/A   Clear
10:55 AM 86.0 °F 84.9 °F 57.2 °F 37% 29.95 in - East 2.3 mph - N/A   Clear
11:00 AM 86 °F - 56 °F 26% 29.95 in 6 mi East 2.3 mph - -  
11:55 AM 86.0 °F 86.1 °F 60.8 °F 43% 29.95 in - East 16.1 mph - N/A   Clear
12:55 PM 87.8 °F 87.1 °F 59.0 °F 38% 29.95 in - ESE 11.5 mph - N/A   Clear
1:55 PM 86.0 °F 85.4 °F 59.0 °F 40% 29.95 in - ESE 15.0 mph - N/A   Clear
2:00 PM 86 °F - 59 °F 30% 29.95 in 6 mi ESE 15.0 mph - -   Scattered Clouds
2:55 PM 86.0 °F 85.4 °F 59.0 °F 40% 29.95 in 6.2 mi ESE 15.0 mph - N/A   Partly Cloudy
3:55 PM 86.0 °F 84.9 °F 57.2 °F 37% 29.95 in 6.2 mi ESE 17.3 mph - N/A   Partly Cloudy
4:55 PM 84.2 °F 83.8 °F 59.0 °F 42% 29.95 in - East 19.6 mph - N/A   Clear
5:00 PM 85 °F - 58 °F 30% 29.95 in 6 mi East 19.6 mph - -  
5:55 PM 82.4 °F 82.5 °F 59.0 °F 45% 29.92 in 6.2 mi East 17.3 mph - N/A   Partly Cloudy
6:55 PM 80.6 °F 81.8 °F 62.6 °F 54% 29.92 in 6.2 mi East 15.0 mph - N/A   Partly Cloudy
7:55 PM 78.8 °F - 66.2 °F 65% 29.95 in - East 11.5 mph - N/A   Clear
8:00 PM 79 °F - 66 °F 55% 29.94 in 6 mi East 11.5 mph - -  
8:55 PM 73.4 °F - 64.4 °F 73% 29.95 in - East 5.8 mph - N/A   Clear
9:55 PM 71.6 °F - 66.2 °F 83% 29.95 in - ESE 3.5 mph - N/A   Clear
10:55 PM 71.6 °F - 68.0 °F 88% 29.98 in - North 1.2 mph - N/A   Clear
11:00 PM 72 °F - 68 °F 83% 29.97 in 6 mi North 1.2 mph - -  
11:55 PM 69.8 °F - 64.4 °F 83% 29.98 in - West 3.5 mph - N/A   Clear